CAN YHBA-YBBN

Flight info

Callsign CAN
Flight time N/A
Altitude 7000
Route YBBN
Aircraft DA62/L-SDFGRY/C

Departure

Time 2026-05-04 01:57
Airport Hervey Bay Airport (YHBA)

Arrival

Time N/A
Airport Brisbane International Airport (YBBN)
Time Latitude Longitude Altitude Speed Heading
2026-05-04 01:51 -25.32003 152.88436 56 ft 0 kts 85°
2026-05-04 01:53 -25.32005 152.88441 54 ft 0 kts 129°
2026-05-04 01:53 -25.32013 152.88419 54 ft 9 kts 282°
2026-05-04 01:53 -25.32051 152.88429 56 ft 8 kts 120°
2026-05-04 01:53 -25.32091 152.88474 55 ft 8 kts 187°
2026-05-04 01:54 -25.32148 152.88445 55 ft 10 kts 215°
2026-05-04 01:54 -25.32167 152.88382 55 ft 13 kts 294°
2026-05-04 01:54 -25.32117 152.88279 55 ft 15 kts 296°
2026-05-04 01:54 -25.32063 152.88175 53 ft 16 kts 294°
2026-05-04 01:55 -25.32013 152.88070 56 ft 16 kts 303°
2026-05-04 01:55 -25.31949 152.87944 57 ft 19 kts 299°
2026-05-04 01:55 -25.31889 152.87846 57 ft 6 kts 292°
2026-05-04 01:55 -25.31902 152.87844 55 ft 0 kts 102°
2026-05-04 01:56 -25.31909 152.87865 57 ft 9 kts 121°
2026-05-04 01:56 -25.32028 152.88102 58 ft 64 kts 117°
2026-05-04 01:56 -25.32282 152.88627 224 ft 84 kts 120°
2026-05-04 01:57 -25.32615 152.89213 444 ft 94 kts 126°
2026-05-04 01:57 -25.32990 152.89802 836 ft 90 kts 127°
2026-05-04 01:57 -25.33562 152.89955 1231 ft 88 kts 176°
2026-05-04 01:57 -25.34166 152.89999 1652 ft 89 kts 173°
2026-05-04 01:58 -25.34786 152.90039 2049 ft 85 kts 171°
2026-05-04 01:58 -25.35348 152.90077 2449 ft 78 kts 170°
2026-05-04 01:58 -25.35917 152.90096 2802 ft 91 kts 170°
2026-05-04 01:58 -25.36611 152.90069 3113 ft 113 kts 197°
2026-05-04 01:59 -25.37149 152.89339 3424 ft 136 kts 249°
2026-05-04 01:59 -25.37022 152.88276 3744 ft 145 kts 288°
2026-05-04 01:59 -25.35483 152.82966 5190 ft 162 kts 286°
2026-05-04 01:59 -25.32678 152.73204 7540 ft 168 kts 286°
2026-05-04 02:00 -25.37428 152.67443 10271 ft 140 kts 162°
2026-05-04 02:00 -25.44012 152.71720 13297 ft 131 kts 149°
2026-05-04 02:00 -25.48879 152.75476 15219 ft 105 kts 149°
2026-05-04 02:00 -25.54676 152.79991 16556 ft 132 kts 149°
2026-05-04 02:01 -25.55663 152.80731 16218 ft 174 kts 150°
2026-05-04 02:01 -25.56171 152.81110 16239 ft 178 kts 149°
2026-05-04 02:01 -25.56687 152.81497 16276 ft 180 kts 149°
2026-05-04 02:01 -25.57203 152.81883 16385 ft 175 kts 149°
2026-05-04 02:02 -25.57703 152.82261 16502 ft 174 kts 149°
2026-05-04 02:02 -25.66624 152.88878 16281 ft 210 kts 149°
2026-05-04 02:02 -25.86087 153.03239 15376 ft 220 kts 149°
2026-05-04 02:02 -25.95508 153.10347 15095 ft 202 kts 115°
2026-05-04 02:03 -25.95565 153.11024 11986 ft 114 kts 180°